Location: Antioch
(38.0049°N, 121.8058°W)
Time: 01:16:53
(UTC+00:00)

Cosmos 1025 Rocket - Pass Details

Date: 11 February 2026
Orbit: 587 x 609 km, 82.5° (Epoch: 10 March)

Event Time Altitude Azimuth Distance (km) Brightness Sun altitude
Rises 13:37:12 0° 353° (N) 2,877 6.4 -17.1°
Reaches altitude 10° 13:39:26 10° 353° (N) 1,968 5.5 -16.7°
Maximum altitude 13:43:48 88° 82° (E) 613 3.0 -15.8°
Drops below altitude 10° 13:48:07 10° 173° (S) 1,946 5.8 -15.0°
Sets 13:50:19 0° 174° (S) 2,842 6.6 -14.6°
